Location: Boiro
(42.6475°N, 8.8834°W)
Time: 01:03:39
(UTC+01:00)

Hubble Space Telescope - Pass Details

Date: 01 November 2021
Orbit: 534 x 538 km, 28.5° (Epoch: 06 December)

Event Time Altitude Azimuth Distance (km) Brightness Sun altitude
Rises 20:34:28 0° 233° (SW) 2,662 5.1 -23.7°
Reaches altitude 10° 20:38:17 10° 198° (SSW) 1,772 3.6 -24.4°
Enters shadow 20:39:02 11° 187° (S) 1,714 3.4 -24.5°
